Восточная Россия

Макрорегион "Дальконтроль" предоставляет диспетчерское обслуживание виртуального воздушного движения сети "VATSIM" в РПИ Хабаровск (UHHH), Якутск (UEEE), Магадан (UHMM) на диспетчерском пункте RU-ERC_FSS с позывным "Дальконтроль" на всех высотах.

Лого Восточная Россия
Руководство

Sergey Balandin

Куратор
Контакты

FSS региона
Обозначение
RU-ERC_FSS
Позывной
Дальконтроль
Частота
135.550
Примечание
Top-down
Инструкторы региона
Ivan Aksenenko (Instructor)
Maxim Osmolovskiy (Instructor)
Nikolay Yamushev * (Controller)
Sergey Balandin (Senior Instructor)
Включает в себя

РПИ Магадан
РПИ Хабаровск
РПИ Якутск

Диспетчеры региона

Диспетчер Рейтинг Допуски *
Ashot Hakobyan Controller UEEE_CTR , UHHH_CTR , UHMM_CTR
Lihan Bao Controller UEEE_CTR , UHHH_CTR , UHMM_CTR
Alex Kalchenko Senior Student UHMM_CTR  *
Denis Makosov Controller UHHH_CTR
Igor Melnick Supervisor UHHH_CTR
Ivan Aksenenko Instructor UHHH_CTR
Konstantin Gordeev Controller UHMM_CTR
Maxim Korobko Senior Student UHHH_CTR  *, UEEE_APP, UHMM_APP, UHPP_APP
Maxim Osmolovskiy Instructor UEEE_CTR , UHHH_CTR , UHMM_CTR
Mikhail Gogolev Instructor UHMM_CTR
Nikolay Yamushev Controller UHHH_CTR
Sergey Balandin Senior Instructor UEEE_CTR , UHHH_CTR , UHMM_CTR
Vadim Kotelenec Senior Student UHHH_CTR  *, UHHH_APP(UHHH+UHHT)
Alexander Vasiliev Student UEEE_GND
Alexander Veretentsev Student 2 UHWW_TWR
Alexey Rodionov Student 2 UHHH_TWR(UHHH+UHHT)
Alexsey Zelenov Student UHHH_GND, UHWW_GND
Andrey Tyrtyshnikov Senior Student UHWW_APP
Artem Fedorov Student UHMM_GND!!!
Daniel Cherednichenko Student 2 UEEE_TWR, UHMM_TWR, UHPP_TWR
Egor Garifulin Student 2 UHSS_TWR, UHHH_TWR(UHHH+UHHT) , UHWW_TWR, UHMM_TWR, UHPP_TWR
Georgii Stepanov Student UHWW_GND
Ivan Pivovarov Student 2 UEEE_GND, UHHH_GND, UHWW_TWR, UHPP_GND
Matvei Udalov Student UHHH_GND
Maxim Sukhorukov Student 2 UHHH_TWR(UHHH+UHHT)
Nikita Brynkov Student 2 UEEE_TWR, UHWW_TWR, UHSS_R_APP*, UHMM_TWR
Nikita Razumov Student 2 UHSS_TWR, UHWW_TWR
Nikita Zikeev Senior Student UHSS_R_APP, UHWW_APP, UHPP_APP, UHMM_APP, UHMA_APP
Nikolai Sholom Student 2 UHHH_TWR(UHHH+UHHT) , UHSS_TWR, UHPP_GND
Roman Vorontsov Student UHHH_GND
Stepan Paliy Student UHHH_TWR(UHHH+UHHT)
Timur Sorov Student 2 UEEE_TWR!!!
Vadim Zhirnov Student UHWW_TWR*, UHHH_GND
Vladimir Biber Student UHPP_TWR!!!*, UHPP_GND

Аэропорты региона

ICAO Город Название Погода
UHMA Анадырь Угольный UHMA 240900Z 30002MPS 250V330 CAVOK 01/M00 Q1015 R02/////// NOSIG RMK MID 36005MPS END R02/35002MPS QFE758/1010
UHBB Благовещенск Игнатьево UHBB 240900Z 20002MPS 160V220 9999 FEW033 21/01 Q1013 R36R/090062 NOSIG RMK QFE742/0990
UHWW Владивосток Владивосток UHWW 240900Z 03004MPS 9999 NSC 16/05 Q1014 R07R/0///70 NOSIG RMK QFE760
UHKD Комсомольск-на-Амуре Дзёмги
UHKK Комсомольск-на-Амуре Хурба
UERL Ленск Ленск
UHMM Магадан Магадан UHMM 240900Z 06002MPS 9999 OVC039CB 09/05 Q1015 R10/70D NOSIG RMK QFE747 R28/10002MPS
UERR Мирный Мирный UERR 240900Z 23003MPS CAVOK 24/M02 Q1013 R25/CLRD60 NOSIG RMK QFE729/0972
UELL Нерюнгри Чульман
UHNN Николаевск-на-Амуре Николаевск-на-Амуре
UHOO Охотск Охотск
UHMP Певек Певек
UHPP Петропавловск-Камчатский Елизово UHPP 240900Z 18004MPS 9999 SCT040 03/M02 Q1015 R16R/CLRD60 NOSIG RMK MT OBSC QFE758/1011
UHMD Провидения Бухта Провидения UHMD 240500Z 03006MPS 9999 BKN016 01/M00 Q1012 RMK QBB480 MT OBSC QFE758/1011
UHKG Советская Гавань Каменный Ручей
UHKM Советская Гавань Май-Гатка
UEST Тикси Тикси
UERP Удачный Полярный UERP 240900Z 21004G09MPS CAVOK 20/M05 Q1012 R17/090060 NOSIG RMK QFE715
UHHH Хабаровск Хабаровск UHHH 240900Z 26004MPS CAVOK 17/03 Q1011 R88/090060 NOSIG RMK QFE752/1003
UESS Черский Черский
UHSS Южно-Сахалинск Хомутово UHSS 240900Z 35007MPS 9999 SCT040 BKN/// 05/01 Q1010 R01/70D NOSIG RMK QFE756/1009
UEEE Якутск Якутск UEEE 240900Z 06004MPS CAVOK 20/M01 Q1013 R23/09//72 NOSIG RMK QFE751
UHNA Аян Аян
UEBB Батагай Батагай
UHNB Богородское Богородское
UHSB Буревестник Буревестник
UHHD Дальнереченск Дальнереченск
UHBE Зея Зея
UHSO Зональное Зональное
UHWK Кавалерово Кавалерово
UHEK Купол Купол
UHSI Курильск Итуруп
UHBI Магдагачи Магдагачи
UHSN Ноглики Ноглики
UHSH Оха Новостройка
UHWP Пластун Пластун
UHBS Свободный Свободный
UHBW Тында Тында
UEMU Усть-Мая Усть-Мая
UHHT Хабаровск Хабаровск МВЛ
UHHY Чумикан Чумикан
UHSK Шахтерск Шахтёрск
UHBP Экимчан Экимчан
UHSM Южно-Курильск Менделеево